Date,TemperatureHighF,TemperatureAvgF,TemperatureLowF,DewpointHighF,DewpointAvgF,DewpointLowF,HumidityHigh,HumidityAvg,HumidityLow,PressureMaxIn,PressureMinIn,WindSpeedMaxMPH,WindSpeedAvgMPH,GustSpeedMaxMPH,PrecipitationSumIn
2013-2-1,73,65,57,-100,-100,-100,0,0,100,30.24,30.15,24,18,29,0.00
2013-2-2,71,66,60,-100,-100,-100,0,0,100,30.24,30.13,18,14,22,0.00
2013-2-3,69,66,62,-100,-100,-100,0,0,100,30.18,30.08,17,12,21,0.00
2013-2-4,70,66,59,-100,-100,-100,0,0,100,30.14,30.03,16,11,20,0.00
2013-2-5,72,69,63,-100,-100,-100,0,0,100,30.09,30.02,13,7,14,0.00
2013-2-6,75,71,68,-100,-100,-100,0,0,100,30.11,30.03,11,7,14,0.00
2013-2-8,74,73,72,-100,-100,-100,0,0,100,30.06,30.00,13,8,16,0.00
2013-2-9,76,72,65,-100,-100,-100,0,0,100,30.15,30.04,17,13,21,0.00
2013-2-10,75,74,71,-100,-100,-100,0,0,100,30.23,30.13,22,16,25,0.00
2013-2-11,76,74,73,-100,-100,-100,0,0,100,30.22,30.12,22,15,25,0.00
2013-2-12,76,75,74,-100,-100,-100,0,0,100,30.13,29.99,15,10,17,0.00
2013-2-13,77,76,75,-100,-100,-100,0,0,100,30.04,29.95,11,7,14,0.00
2013-2-14,78,73,65,-100,-100,-100,0,0,100,30.01,29.92,23,10,28,0.00
2013-2-15,72,68,65,-100,-100,-100,0,0,100,30.03,29.95,22,12,28,0.00
2013-2-16,69,68,65,-100,-100,-100,0,0,100,30.09,29.91,30,18,37,0.00
2013-2-17,61,56,50,-100,-100,-100,0,0,100,30.30,30.10,26,16,33,0.00
2013-2-18,68,60,51,-100,-100,-100,0,0,100,30.29,30.19,21,16,24,0.00
2013-2-19,71,68,64,-100,-100,-100,0,0,100,30.19,30.11,17,8,21,0.00
2013-2-20,73,69,66,-100,-100,-100,0,0,100,30.13,30.03,10,5,13,0.00
2013-2-21,76,73,70,-100,-100,-100,0,0,100,30.09,30.01,13,8,16,0.00
2013-2-22,76,74,72,-100,-100,-100,0,0,100,30.11,30.01,15,10,18,0.00
2013-2-23,77,75,74,-100,-100,-100,0,0,100,30.05,29.96,13,8,14,0.00
2013-2-24,81,76,74,-100,-100,-100,0,0,100,30.02,29.93,5,2,6,0.00
2013-2-25,78,77,76,-100,-100,-100,0,0,100,29.93,29.83,16,8,20,0.00
2013-2-26,78,78,77,-100,-100,-100,0,0,100,29.93,29.80,16,11,20,0.00
2013-2-27,78,75,71,-100,-100,-100,0,0,100,29.99,29.89,14,6,16,0.00
2013-2-28,71,70,66,-100,-100,-100,0,0,100,30.02,29.93,16,9,21,0.00